Flag for Germany Weather past 2 weeks in Demmin, Mecklenburg-Western Pomerania, Germany

Now
51 °F

Partly sunny.


Feels Like: 49 °F
Forecast: 41 / 65 °F
Wind: 7 mph from West

Location: Greifswald

Current Time: May 30, 2015 at 1:20:49 PM

Latest Report: May 30, 2015 at 1:00 PM


Visibility: 19 mi

Pressure: 29.78 "Hg

Humidity: 80%

Dew point: 45 °F

Location of DemminLocation

Historic Weather in Demmin — Graph

°F

Demmin temperature yesterday

Maximum temperature yesterday: 61 °F (at 7:00 PM)
Minimum temperature yesterday: 43 °F (at 6:00 AM)
Average temperature yesterday: 53 °F

Past Weeks' High & Low Weather Summary

 TemperatureHumidityPressure
High65 °F (May 28, 2:00 PM)97% (May 20, 4:00 AM)30.31 "Hg (May 20, 4:00 AM)
Low40 °F (May 20, 5:00 AM)40% (May 29, 4:00 PM)29.57 "Hg (May 19, 5:00 AM)
Average52 °F73%29.99 "Hg
* Reported May 15 12:00 Noon — May 30 12:00 Noon, Demmin, Weather by CustomWeather, © 2015

Note: Actual official high and low records may vary slightly from our data, if they occured in-between our weather recording intervals... More about our weather records

Advertising

Demmin weather history for previous 24 hours

 ConditionsComfort  
Time TempWeatherWind HumidityBarometerVisibility
12:00 PM
Sat, May 30
54 °FPartly sunny.6 mph71%29.76 "Hg31 mi
11:00 AM53 °FOvercast.6 mph70%29.73 "Hg37 mi
10:00 AM51 °FScattered clouds.7 mph77%29.72 "Hg22 mi
9:00 AM50 °FOvercast.6 mph84%29.70 "Hg16 mi
8:00 AM49 °FOvercast.6 mph87%29.68 "Hg19 mi
7:00 AM49 °FLight rain. Overcast.5 mph91%29.68 "Hg10 mi
6:00 AM51 °FLight rain. Overcast.6 mph84%29.66 "Hg6 mi
5:00 AM54 °FLight rain. Overcast.3 mph81%29.64 "Hg14 mi
4:00 AM54 °FOvercast.3 mph77%29.64 "Hg22 mi
3:00 AM55 °FOvercast.3 mph73%29.65 "Hg22 mi
2:00 AM55 °FOvercast.2 mph72%29.66 "Hg19 mi
1:00 AM55 °FOvercast.3 mph71%29.67 "Hg16 mi
12:00 AM55 °FOvercast.3 mph74%29.69 "Hg22 mi
10:00 PM
Fri, May 29
56 °FOvercast.5 mph70%29.72 "Hg31 mi
9:00 PM57 °FPartly sunny.5 mph64%29.75 "Hg37 mi
8:00 PM60 °FPartly sunny.5 mph51%29.76 "Hg37 mi
7:00 PM61 °FOvercast.3 mph45%29.78 "Hg40 mi
6:00 PM60 °FOvercast.3 mph45%29.80 "Hg40 mi
4:00 PM60 °FOvercast.3 mph40%29.84 "Hg37 mi
3:00 PM60 °FOvercast.3 mph42%29.86 "Hg37 mi
2:00 PM58 °FOvercast.5 mph45%29.88 "Hg37 mi
1:00 PM59 °FOvercast.3 mph48%29.89 "Hg37 mi
Weather by CustomWeather, © 2015

See weather overviewHow to use our weather pages